Simultaneous Nadir Overpasses (SNOs) Predictions

Prediction of SNOs over PacNW region [( 10.00, 139.50) to ( 22.70, 165.60)] between AQUA and NPP Satellites:

Table of predicted SNOs over PacNW region for the next 30.0 days since TLE Epoch: 12/6/2019
Index Date (AQUA) Time (AQUA) AQUA Lat,Lon Date (NPP) Time (NPP) NPP Lat,Lon Distance(km) Time Diff (sec)
1 12/08/2019 15:09:42 22.58, 159.85 12/08/2019 15:10:58 23.16, 157.23 276.28 76
2 12/11/2019 03:31:32 22.70, 147.52 12/11/2019 03:28:02 25.68, 145.01 418.65 210
3 12/16/2019 15:59:10 22.61, 147.49 12/16/2019 16:01:36 23.25, 144.57 307.03 146
4 12/24/2019 15:09:45 22.58, 159.84 12/24/2019 15:10:47 23.15, 157.25 273.12 62
5 12/27/2019 03:31:35 22.65, 147.52 12/27/2019 03:28:06 26.53, 144.81 511.53 209
6 01/01/2020 15:59:11 22.63, 147.49 01/01/2020 16:01:24 23.26, 144.60 304.21 133




NCC Satellite Simultaneous Nadir Overpasses (SNOs) Prediction Service
